User: anonymous   Login
Location: NJAA Observatory
(40.6819°N, 74.8979°W)
Time: 20:59:37
(UTC-05:00)
Language:

Landsat 5 - Orbit

View from above orbital plane
View from above orbital plane
View from above satellite
View from above satellite

Ground track
Ground track

The orbit data is extracted from the following two-line orbital elements,

1 14780U 84021A   18048.90996433 +.00000096 +00000-0 +14877-4 0  9995
2 14780 098.0578 170.9910 0092008 080.6880 280.4728 14.91671983336962
Epoch (UTC): 17 February 2018 21:50:20
Eccentricity: 0.0092008
inclination: 98.0578°
perigee height: 528 km
apogee height: 657 km
right ascension of ascending node: 170.9910°
argument of perigee: 80.6880°
revolutions per day: 14.91671983
mean anomaly at epoch: 280.4728°
orbit number at epoch: 33696

The dashed part of the orbit path shows where the satellite is in the earth's shadow,  

DLR